Starlink 34203

operational
NORAD ID: 64246 Int'l Des: 2025-119 Owner: SPXS Country: US Constellation: starlink
LEOCIRCULAR

About Starlink 34203

Description loading...

Live Position

Loading 3D Globe...

Upcoming Passes

Altitude History

Altitude vs Time

uPlot chart will show altitude changes over time

Two-Line Element Set

1 64246U 25119P 26095.58488813 .00023008 00000-0 84359-3 0 9992
2 64246 42.9989 155.0709 0001454 275.6375 84.4310 15.27557536 48290
Epoch: Apr 5, 2026 • Age: 6 hours

Current Status

Altitude 492.2 km
Velocity 7.62 km/s
Sub-Earth Point -34.71°S, 109.41°W
Launch Date Jun 3, 2025
Age 0.8 years
Type internet

Technical Details

Classification Payload
Mass 575.00 kg
Dry Mass 530.00 kg
Total Mass 575.00 kg
Length 0.30 m
Diameter 4.10 m
Span 29.00 m
Shape Box + pan
Manufacturer SPXS
Bus Type Starlink V2MO
Phase Status In Orbit
Owner/State SPXS/US

Large Constellations

Loading constellations...